COSMOS 2527 (756)

Last updated on Sun Jun 21 2026 00:03:28 GMT+0000 (Coordinated Universal Time)

1 43508U 18053A 26170.90026155 -.00000034 00000+0 00000+0 0 9997 2 43508 65.5791 73.8170 0006906 238.7549 121.2143 2.13102048 62339
UTC large
Height (km)
Speed (km/s)
/
Latitude / Longitude
Inclination (degrees)
Orbital Period (minutes)
Azimuth
Elevation
Range (km)
Doppler Factor

Next 0 passes for location: London (51.5072 / 0.1276)

No passes found over London.
COSMOS 2527 (756)